map of GLZ home
Great Circle Mapper logo
GLZ - Airport
Location
City:  Breda, Netherlands
Name:Gilze-Rijen AB
ICAO / IATA:EHGR / GLZ

Details
Type:Airport (Aerodrome, Airfield)
Use:Military
Latitude:5134'03"N (51.567389)
Longitude:455'55"E (4.931833)
Datum:WGS 1984
Elevation:49 ft (15 m)
Runways:2
Longest:9118 × 148 ft (2779 × 45 m), paved

Time
Time Zone:UTC+1 (DST+2)
Local Time:

Weather
METAR:EHGR 190128Z AUTO 13004KT 4400 BR SCT003 OVC011 18/17 Q1010 YLO
TAF:EHGR 181632Z 1817/1905 11008KT CAVOK PROB30
TEMPO 1818/1822 19012G22KT 4500 SHRA TSRA FEW015 SCT025CB
BECMG 1822/1824 2000 BR PROB40 1902/1905 0600 FG

Related Locations
Nearby:
Farthest:CHT: 11890 mi / 19135 km
Waitangi [Tuuta], Chatham Islands, NZ

Find:

   beyond  
but within

Other Information
Maps:
NOTAMs:
Links:
Sources:

  
flag of Netherlands   

Sectional Chart

Flight Planning
at skyvector.com

Satellite Image

Google Maps Satellite View

 

Copyright © 2004-2014 Karl L. Swartz. All rights reserved.
The Great Circle Mapper name and logo are trademarks of the Great Circle Mapper.
All other trademarks mentioned herein belong to their respective owners.
Please see credits for attibutions and further copyright information.

  Follow gcmap on Facebook Follow gcmap on Twitter

hCard Microformat

Geo Microformat